Wind_Speed
5 6 6 7 7 8 8 9 10 11 11 12 13 14 14 15 16 16 16 17 17 17 18 18 18 19 19 19 20 20 21 21 22 23 23 23 23 23 24 24 24 24 24
4 5 6 6 7 8 9 10 11 11 12 13 14 15 15 16 17 17 17 18 18 19 19 20 20 20 21 21 21 22 22 23 23 23 24 24 24 24 25 25 25 25 26
4 5 5 6 7 8 9 10 11 12 13 14 15 16 16 17 17 18 19 19 19 20 20 20 21 21 22 22 22 23 23 24 24 24 24 25 25 25 26 26 26 26 26
4 5 6 6 7 8 9 10 11 13 14 14 15 16 16 17 17 18 19 19 20 20 20 21 21 22 22 22 23 23 23 24 24 24 25 25 25 26 26 27 27 27 27
5 6 7 8 8 9 10 11 12 13 14 15 16 16 17 17 18 18 19 20 20 21 21 22 22 22 22 22 23 23 23 24 24 25 25 25 26 26 26 27 27 28 28
7 8 8 9 10 11 12 12 13 14 15 16 16 17 18 19 19 20 20 20 20 21 21 22 22 22 23 23 23 24 24 24 25 25 25 26 26 27 27 27 28 28 29
8 9 9 10 11 12 13 14 14 15 16 17 17 18 19 19 20 20 20 21 21 22 22 22 23 23 23 23 24 24 25 25 26 26 27 27 27 28 28 28 28 29 29
9 10 10 11 12 12 13 14 15 15 16 17 17 18 19 20 20 20 21 21 22 22 22 23 23 23 24 24 24 25 25 26 27 27 28 28 29 29 29 30 30 31 31
10 11 12 12 13 13 14 15 15 16 17 17 18 19 19 20 20 21 21 21 22 22 23 23 24 24 25 25 25 26 26 27 28 28 28 29 29 30 30 31 31 32 32
12 12 13 13 14 14 15 16 16 17 18 18 19 20 20 20 21 21 21 22 22 23 23 24 24 25 25 25 26 26 27 27 28 28 29 29 30 30 31 31 32 32 33
13 13 14 14 15 15 16 17 17 18 18 19 19 20 21 21 21 21 22 22 23 23 24 24 25 25 25 25 26 26 27 27 28 28 29 29 30 30 31 31 32 33 33
14 15 16 16 16 16 17 18 18 19 19 19 20 21 21 22 22 22 23 23 23 24 24 25 25 25 26 26 26 27 27 28 28 29 29 30 30 31 31 32 32 33 34
16 16 17 17 18 18 18 19 20 20 20 21 21 21 22 22 23 23 23 24 24 25 25 25 26 26 26 27 27 27 28 29 29 30 30 31 31 32 32 33 34 34 35
17 18 18 18 19 20 20 20 21 21 22 22 22 22 22 23 23 24 24 24 25 25 25 26 26 26 27 27 28 28 29 29 30 30 31 32 32 33 34 34 35 35 36
18 18 19 19 20 20 21 22 22 22 23 23 23 24 24 24 24 25 25 25 25 26 26 26 27 27 28 28 29 29 29 29 30 31 32 32 33 34 35 35 36 37 38
20 20 20 20 21 21 22 22 23 24 24 24 25 25 25 25 25 25 26 26 27 27 27 27 28 28 28 29 29 30 30 31 31 32 33 34 35 36 36 37 38 38 39
21 21 21 22 22 22 23 23 24 25 25 26 26 26 26 26 26 27 27 28 28 28 28 28 29 29 29 30 31 31 32 32 33 34 35 35 36 37 38 38 39 40 40
22 23 23 23 23 24 24 24 25 25 26 27 27 27 27 27 28 28 28 29 29 29 29 29 30 30 31 31 32 33 33 34 35 35 36 37 37 38 39 39 40 41 41
23 24 24 25 25 25 25 26 26 26 27 28 28 28 28 29 29 30 30 30 30 30 31 31 31 32 32 33 33 34 34 35 36 37 38 38 39 40 40 41 42 42 43
24 25 25 26 26 26 27 27 27 28 28 29 29 29 30 30 30 31 31 31 32 32 32 32 33 33 33 34 34 35 36 37 37 38 39 40 41 41 42 42 43 44 45
26 26 27 27 27 28 28 28 29 29 29 30 30 31 31 31 32 32 32 32 33 33 34 34 34 34 35 35 36 36 37 38 39 40 41 42 42 43 44 44 45 45 46
27 27 27 27 28 29 29 29 30 30 30 31 31 32 32 32 33 33 33 34 34 35 35 36 36 36 36 37 37 37 38 39 40 41 42 43 44 44 45 46 47 48 48
27 27 27 27 28 29 29 30 30 30 31 32 32 33 33 33 34 34 35 35 36 37 37 37 37 38 39 39 40 40 40 40 40 41 42 44 45 46 47 48 49 50 51
27 27 27 27 28 29 30 30 30 31 31 32 33 34 34 34 35 36 37 37 38 38 38 39 39 40 41 41 42 42 43 44 43 42 43 45 46 48 49 50 51 53 54
27 27 27 28 28 29 30 30 31 32 32 33 34 34 35 36 36 37 38 39 39 39 40 40 41 42 42 43 44 44 45 46 46 46 46 46 47 49 51 52 54 55 56
27 27 28 28 29 30 31 31 32 33 33 34 34 35 36 37 38 39 39 40 40 41 41 42 42 43 44 45 46 46 47 47 48 49 49 49 49 50 52 54 55 57 58
Wind_Direction
270 271 274 278 282 285 286 286 287 288 287 288 289 289 289 288 288 287 286 285 285 284 284 283 283 282 280 278 277 277 275 274 273 272 272 272 270 269 268 267 265 264 263
276 277 279 283 286 288 289 289 289 289 288 288 288 288 287 287 286 287 287 286 284 284 283 283 283 282 281 280 279 278 277 276 276 275 273 272 272 271 270 269 268 266 265
290 288 289 291 292 291 291 291 292 291 291 291 291 290 288 287 286 286 286 285 285 285 284 284 284 284 283 282 281 279 279 278 277 276 275 274 273 272 271 270 269 268 267
306 301 298 298 298 298 296 295 294 293 293 293 293 292 291 289 288 287 286 286 286 286 286 286 286 285 284 283 282 281 280 279 278 278 277 276 275 273 272 271 270 269 268
316 309 304 301 300 299 299 297 296 295 295 294 293 292 292 291 289 289 288 287 287 287 287 287 287 286 285 283 283 281 280 280 279 279 278 277 276 274 273 271 270 269 269
318 312 307 303 300 298 297 298 296 296 295 295 293 292 291 290 289 289 289 288 288 288 288 287 287 286 285 284 283 282 281 281 280 279 278 277 276 275 274 272 271 270 270
318 314 310 306 302 299 297 297 297 296 296 295 294 293 292 291 291 290 289 289 288 288 288 288 288 287 286 285 284 284 283 282 281 280 280 279 278 277 276 274 273 272 271
319 316 313 308 305 301 298 297 298 298 298 297 295 294 294 292 292 291 290 290 289 289 289 289 289 288 288 287 286 285 284 283 282 281 280 279 278 277 276 275 274 273 272
317 316 314 310 306 303 300 299 300 299 298 298 296 295 295 295 294 293 292 291 290 290 290 290 289 289 288 287 286 286 285 284 283 282 281 280 279 278 277 276 275 275 274
310 310 311 309 306 304 302 302 302 301 300 298 297 296 296 296 295 294 293 293 292 292 291 291 290 290 289 288 288 287 286 286 285 284 283 282 281 280 278 277 277 276 275
304 305 306 307 306 305 304 303 304 303 302 301 299 298 298 297 297 295 295 294 294 294 293 292 291 290 290 289 288 288 287 286 285 285 284 283 282 281 280 279 278 277 276
302 302 303 304 304 303 302 302 302 302 301 301 300 299 299 299 298 297 296 296 295 295 293 292 292 291 290 290 289 289 288 287 286 285 284 284 283 282 281 280 279 278 277
299 300 301 302 301 301 300 299 300 300 300 299 299 299 300 300 299 298 297 297 296 296 294 293 292 292 291 291 290 290 289 288 287 286 285 284 284 283 282 281 280 279 278
298 298 299 300 300 300 300 299 299 298 298 298 298 298 299 299 299 299 299 298 297 296 295 293 293 292 292 292 292 291 291 290 289 288 287 286 285 284 283 281 280 279 278
297 297 297 298 298 297 298 298 298 297 297 297 297 298 298 298 298 298 298 298 297 297 296 295 294 293 293 292 292 291 290 290 289 288 287 286 285 284 283 282 281 280 279
295 296 296 296 296 296 296 296 296 296 297 297 297 297 297 296 296 297 297 297 297 296 296 295 294 293 293 293 292 291 291 290 289 288 287 286 285 284 283 282 281 280 279
293 294 294 295 295 295 295 295 294 294 294 295 295 295 295 295 295 296 296 296 295 295 294 294 294 294 293 293 292 292 291 290 290 289 288 287 286 285 285 284 283 282 281
291 292 292 293 293 294 294 294 294 293 293 293 294 294 294 294 294 295 295 295 295 294 294 294 294 294 294 293 293 292 292 291 291 290 290 289 288 287 286 285 284 283 282
289 290 290 290 291 292 293 292 292 291 291 292 292 293 293 294 294 295 295 294 294 294 294 294 293 293 294 294 294 293 293 293 292 292 291 290 289 288 287 286 285 285 284
287 289 289 290 290 290 291 291 291 290 290 290 291 292 293 293 293 294 294 294 294 294 294 294 293 293 294 294 293 293 293 293 293 293 293 292 291 290 289 288 287 287 286
287 288 289 289 289 289 289 290 290 290 290 290 290 291 292 292 292 293 293 293 294 294 294 294 294 294 294 294 294 293 294 294 294 294 294 293 293 292 291 290 289 288 287
286 288 288 288 288 288 288 288 289 290 290 289 290 290 291 291 291 292 292 293 293 293 293 293 293 293 294 294 294 294 293 294 294 295 294 294 293 293 292 291 290 289 288
286 287 288 288 287 287 288 289 289 290 290 289 289 290 291 291 291 291 292 292 292 293 293 293 293 293 294 294 295 294 293 292 292 293 293 293 293 293 292 291 291 290 289
286 287 288 288 287 287 288 289 289 289 289 289 289 290 290 291 291 291 291 292 292 292 293 293 293 294 294 294 295 295 295 294 293 292 292 292 292 292 292 291 291 290 289
287 288 288 288 288 288 288 288 289 289 289 289 289 289 289 289 290 290 291 291 291 292 292 293 293 294 294 294 295 295 296 295 295 294 293 293 293 293 293 292 292 291 290
286 287 288 288 289 289 289 289 288 289 289 289 289 289 289 289 289 290 290 290 291 292 292 293 293 294 294 295 295 296 296 296 295 294 294 293 293 294 294 293 293 292 291
Height
5879 5879 5879 5879 5879 5878 5878 5878 5878 5877 5877 5877 5876 5876 5875 5874 5874 5873 5873 5872 5871 5870 5870 5869 5868 5867 5866 5866 5865 5865 5864 5863 5863 5862 5861 5861 5860 5860 5859 5859 5858 5858 5857
5878 5878 5878 5878 5877 5877 5877 5876 5876 5875 5875 5875 5874 5873 5873 5872 5871 5870 5870 5869 5868 5867 5866 5865 5865 5864 5863 5862 5862 5861 5860 5859 5858 5858 5857 5857 5856 5855 5855 5854 5854 5853 5853
5877 5877 5876 5876 5876 5875 5875 5875 5874 5874 5873 5872 5872 5871 5870 5869 5868 5868 5867 5866 5865 5864 5863 5862 5861 5860 5859 5859 5858 5857 5856 5855 5854 5853 5853 5852 5851 5851 5850 5849 5849 5849 5848
5876 5875 5875 5875 5874 5874 5873 5873 5872 5871 5871 5870 5869 5868 5867 5866 5865 5864 5863 5862 5861 5860 5859 5858 5857 5856 5855 5855 5854 5853 5852 5850 5850 5849 5848 5847 5847 5846 5845 5845 5844 5843 5843
5874 5874 5873 5873 5873 5872 5871 5871 5870 5869 5868 5868 5867 5866 5865 5864 5862 5861 5860 5859 5858 5857 5856 5855 5853 5852 5851 5850 5849 5848 5847 5846 5845 5844 5843 5843 5842 5841 5840 5839 5839 5838 5838
5873 5873 5872 5871 5871 5870 5870 5869 5868 5867 5866 5865 5864 5863 5862 5861 5859 5858 5857 5855 5854 5853 5852 5850 5849 5848 5847 5846 5845 5844 5842 5841 5840 5839 5838 5837 5837 5836 5835 5834 5833 5833 5832
5872 5871 5870 5869 5869 5868 5867 5866 5866 5865 5864 5862 5861 5860 5859 5857 5856 5855 5853 5852 5850 5849 5848 5846 5845 5844 5842 5841 5840 5839 5838 5836 5835 5834 5833 5832 5831 5830 5829 5828 5828 5827 5826
5870 5869 5868 5867 5867 5866 5865 5864 5863 5862 5861 5859 5858 5857 5855 5854 5853 5851 5849 5848 5847 5845 5844 5842 5841 5839 5838 5836 5835 5834 5833 5831 5830 5829 5828 5827 5825 5824 5823 5822 5821 5821 5820
5868 5867 5866 5865 5864 5864 5862 5861 5860 5859 5858 5856 5855 5853 5852 5850 5849 5847 5846 5844 5843 5841 5839 5838 5836 5835 5833 5832 5830 5829 5827 5826 5824 5823 5822 5821 5819 5818 5817 5816 5815 5814 5813
5866 5865 5864 5863 5862 5861 5860 5859 5857 5856 5855 5853 5852 5850 5848 5847 5845 5844 5842 5840 5838 5837 5835 5833 5831 5830 5828 5827 5825 5823 5822 5820 5818 5817 5816 5814 5813 5812 5810 5809 5808 5807 5806
5864 5863 5862 5861 5859 5858 5857 5856 5854 5853 5851 5850 5848 5846 5844 5843 5841 5839 5838 5836 5834 5832 5830 5829 5827 5825 5823 5821 5820 5818 5816 5814 5812 5811 5809 5808 5806 5805 5804 5802 5801 5800 5799
5862 5860 5859 5858 5856 5855 5854 5853 5851 5850 5848 5846 5844 5842 5841 5839 5837 5835 5833 5832 5830 5828 5826 5824 5822 5820 5818 5816 5814 5812 5810 5808 5807 5805 5803 5801 5800 5798 5797 5795 5794 5792 5791
5859 5857 5856 5855 5853 5852 5850 5849 5848 5846 5844 5842 5840 5839 5837 5835 5833 5831 5829 5827 5825 5823 5821 5819 5817 5815 5812 5810 5808 5806 5804 5802 5800 5798 5796 5795 5793 5791 5789 5788 5786 5785 5784
5855 5854 5852 5851 5849 5848 5846 5845 5843 5842 5840 5838 5836 5834 5832 5830 5828 5826 5824 5822 5820 5818 5816 5813 5811 5809 5807 5805 5802 5800 5798 5796 5794 5792 5789 5788 5786 5784 5782 5780 5778 5777 5775
5851 5850 5849 5847 5846 5844 5842 5840 5839 5837 5835 5834 5832 5830 5827 5825 5823 5821 5819 5817 5815 5812 5810 5808 5806 5803 5801 5799 5796 5794 5792 5789 5787 5785 5782 5780 5778 5776 5774 5772 5770 5769 5767
5847 5846 5845 5843 5842 5840 5838 5836 5834 5832 5830 5828 5826 5824 5822 5820 5818 5816 5814 5811 5809 5807 5804 5802 5800 5797 5795 5792 5790 5787 5785 5783 5780 5778 5775 5773 5770 5768 5766 5764 5762 5760 5758
5842 5841 5840 5838 5837 5835 5833 5831 5829 5827 5825 5823 5821 5819 5817 5815 5813 5810 5808 5806 5803 5801 5798 5796 5793 5791 5789 5786 5783 5781 5778 5775 5773 5770 5767 5765 5762 5760 5757 5755 5753 5751 5748
5837 5836 5835 5833 5831 5830 5828 5826 5824 5822 5820 5818 5816 5814 5811 5809 5807 5804 5802 5800 5797 5795 5792 5790 5787 5784 5782 5779 5776 5773 5771 5768 5765 5762 5759 5756 5754 5751 5748 5746 5743 5741 5738
5832 5831 5829 5827 5826 5824 5822 5820 5818 5816 5814 5812 5810 5807 5805 5803 5800 5798 5796 5793 5790 5788 5785 5783 5780 5778 5775 5772 5769 5766 5763 5760 5757 5754 5750 5748 5745 5742 5739 5736 5733 5731 5728
5826 5825 5823 5821 5820 5818 5816 5814 5812 5810 5808 5806 5803 5801 5799 5796 5794 5791 5789 5786 5783 5781 5778 5775 5773 5770 5767 5764 5761 5758 5755 5752 5748 5745 5741 5738 5735 5732 5729 5726 5723 5720 5717
5820 5819 5817 5815 5813 5811 5809 5807 5805 5803 5801 5799 5796 5794 5792 5789 5787 5784 5781 5779 5776 5773 5771 5768 5765 5762 5759 5756 5754 5750 5747 5743 5740 5736 5732 5728 5725 5721 5718 5715 5712 5709 5706
5813 5812 5810 5808 5806 5805 5803 5801 5799 5797 5794 5792 5790 5787 5784 5782 5779 5777 5774 5771 5768 5766 5763 5760 5757 5754 5751 5748 5745 5742 5739 5736 5731 5727 5723 5718 5715 5711 5707 5704 5700 5697 5694
5807 5805 5803 5801 5799 5797 5796 5794 5792 5789 5787 5785 5782 5780 5777 5774 5772 5769 5766 5763 5761 5758 5755 5752 5748 5745 5742 5739 5735 5732 5729 5726 5723 5719 5714 5709 5705 5701 5696 5692 5688 5684 5681
5800 5798 5796 5794 5792 5790 5788 5786 5784 5782 5780 5777 5775 5772 5769 5767 5764 5761 5758 5755 5752 5749 5746 5743 5740 5736 5733 5729 5726 5722 5718 5714 5711 5709 5705 5700 5695 5690 5685 5681 5676 5672 5668
5793 5791 5789 5787 5785 5783 5781 5779 5777 5775 5772 5770 5767 5764 5761 5759 5756 5752 5749 5746 5743 5740 5737 5734 5730 5727 5723 5719 5715 5711 5707 5703 5699 5695 5693 5689 5684 5679 5673 5668 5663 5658 5653
5786 5784 5782 5780 5778 5776 5773 5771 5769 5767 5764 5762 5759 5756 5753 5750 5747 5744 5740 5737 5734 5731 5727 5724 5720 5717 5713 5709 5704 5700 5696 5692 5687 5683 5679 5676 5672 5667 5661 5655 5649 5643 5638